SWR65G KMIA-LSZH

Flight info

Callsign SWR65G
Flight time 8h 29m
Altitude 33000
Route KMIA/08R N0490F330 FOLZZ3 SUMRS/M083F330 M327 JIMAC DCT BALOO DCT 36N060W 40N050W/M083F350 42N040W 45N030W 4630N02000W 47N015W DCT ETIKI DCT REGHI/N0480F350 DCT OZNOH/N0467F360 DCT BULOX DCT TABOV/N0470F370 DCT RESMI DCT TEPRI DCT POGZI DCT GELTA DCT MANAG DCT PEVIT DCT BLM DCT LSZH/14
Aircraft B77W/H-SDE2E3FGHIJ1J4J5LM1OP2RVWXYZ/LB1D1G1

Departure

Time 2026-05-04 22:14
Airport Miami International Airport (KMIA)

Arrival

Time 2026-05-05 06:43
Airport Zürich Airport (LSZH)
Time Latitude Longitude Altitude Speed Heading
2026-05-04 21:09 25.79015 -80.27343 20 ft 0 kts
2026-05-04 21:16 25.79011 -80.27343 21 ft 0 kts
2026-05-04 21:57 25.79010 -80.27343 20 ft 2 kts
2026-05-04 21:57 25.78985 -80.27344 22 ft 4 kts
2026-05-04 21:57 25.78958 -80.27344 23 ft 3 kts
2026-05-04 21:58 25.78937 -80.27341 23 ft 4 kts 316°
2026-05-04 21:58 25.78927 -80.27317 25 ft 4 kts 272°
2026-05-04 21:58 25.78927 -80.27294 24 ft 1 kts 267°
2026-05-04 21:58 25.78927 -80.27290 24 ft 0 kts 267°
2026-05-04 22:04 25.78927 -80.27295 20 ft 2 kts 267°
2026-05-04 22:04 25.78926 -80.27311 29 ft 2 kts 266°
2026-05-04 22:04 25.78925 -80.27339 20 ft 7 kts 266°
2026-05-04 22:04 25.78921 -80.27416 20 ft 11 kts 266°
2026-05-04 22:05 25.78910 -80.27497 20 ft 11 kts 259°
2026-05-04 22:05 25.78896 -80.27578 20 ft 11 kts 259°
2026-05-04 22:05 25.78883 -80.27659 20 ft 11 kts 263°
2026-05-04 22:05 25.78878 -80.27742 20 ft 11 kts 266°
2026-05-04 22:06 25.78872 -80.27855 20 ft 17 kts 266°
2026-05-04 22:06 25.78891 -80.27984 24 ft 17 kts 296°
2026-05-04 22:06 25.78949 -80.28100 22 ft 17 kts 300°
2026-05-04 22:06 25.79014 -80.28228 21 ft 21 kts 299°
2026-05-04 22:07 25.79086 -80.28368 20 ft 21 kts 301°
2026-05-04 22:07 25.79168 -80.28500 19 ft 21 kts 302°
2026-05-04 22:07 25.79241 -80.28639 19 ft 21 kts 300°
2026-05-04 22:07 25.79312 -80.28779 19 ft 21 kts 299°
2026-05-04 22:08 25.79383 -80.28919 19 ft 21 kts 300°
2026-05-04 22:08 25.79455 -80.29058 19 ft 21 kts 300°
2026-05-04 22:08 25.79526 -80.29198 20 ft 21 kts 299°
2026-05-04 22:08 25.79597 -80.29339 20 ft 21 kts 300°
2026-05-04 22:09 25.79670 -80.29478 20 ft 21 kts 300°
2026-05-04 22:09 25.79740 -80.29616 19 ft 21 kts 300°
2026-05-04 22:09 25.79811 -80.29756 19 ft 21 kts 299°
2026-05-04 22:09 25.79863 -80.29861 19 ft 10 kts 299°
2026-05-04 22:10 25.79892 -80.29917 19 ft 7 kts 300°
2026-05-04 22:10 25.79907 -80.29946 19 ft 3 kts 300°
2026-05-04 22:10 25.79911 -80.29953 19 ft 0 kts 300°
2026-05-04 22:11 25.79936 -80.30002 18 ft 13 kts 299°
2026-05-04 22:11 25.79982 -80.30090 19 ft 13 kts 305°
2026-05-04 22:11 25.80051 -80.30123 19 ft 11 kts 11°
2026-05-04 22:12 25.80075 -80.30060 18 ft 2 kts 89°
2026-05-04 22:12 25.80075 -80.30058 18 ft 0 kts 89°
2026-05-04 22:13 25.80076 -80.30023 18 ft 24 kts 88°
2026-05-04 22:13 25.80097 -80.29528 19 ft 103 kts 87°
2026-05-04 22:13 25.80141 -80.28465 20 ft 170 kts 87°
2026-05-04 22:13 25.80195 -80.27007 351 ft 192 kts 87°
2026-05-04 22:14 25.80196 -80.25540 1065 ft 191 kts 99°
2026-05-04 22:14 25.79608 -80.24208 1808 ft 196 kts 116°
2026-05-04 22:14 25.78961 -80.22857 2461 ft 200 kts 113°
2026-05-04 22:14 25.78357 -80.21496 3101 ft 199 kts 112°
2026-05-04 22:15 25.77723 -80.20073 3367 ft 216 kts 113°
2026-05-04 22:15 25.77021 -80.18507 3543 ft 240 kts 114°
2026-05-04 22:15 25.76215 -80.16789 3853 ft 258 kts 116°
2026-05-04 22:15 25.75329 -80.14997 4355 ft 270 kts 117°
2026-05-04 22:16 25.74436 -80.13141 4955 ft 272 kts 111°
2026-05-04 22:16 25.74161 -80.11074 5429 ft 278 kts 78°
2026-05-04 22:16 25.74941 -80.09121 5874 ft 281 kts 48°
2026-05-04 22:16 25.76244 -80.07481 6372 ft 287 kts 46°
2026-05-04 22:17 25.77575 -80.05808 6982 ft 291 kts 46°
2026-05-04 22:17 25.78922 -80.04106 7574 ft 296 kts 46°
2026-05-04 22:17 25.80291 -80.02377 8216 ft 300 kts 46°
2026-05-04 22:17 25.81681 -80.00620 8832 ft 305 kts 46°
2026-05-04 22:18 25.83093 -79.98835 9436 ft 310 kts 46°
2026-05-04 22:18 25.84527 -79.97020 10035 ft 314 kts 46°
2026-05-04 22:18 25.85990 -79.95167 10413 ft 328 kts 46°
2026-05-04 22:18 25.87523 -79.93225 10559 ft 349 kts 46°
2026-05-04 22:19 25.89174 -79.91131 10732 ft 371 kts 46°
2026-05-04 22:19 25.90926 -79.88905 10914 ft 392 kts 46°
2026-05-04 22:19 25.92748 -79.86584 11324 ft 404 kts 46°
2026-05-04 22:19 25.94614 -79.84203 11869 ft 413 kts 46°
2026-05-04 22:20 25.96514 -79.81776 12540 ft 418 kts 46°
2026-05-04 22:20 25.98433 -79.79325 13258 ft 423 kts 46°
2026-05-04 22:20 26.00381 -79.76840 13998 ft 429 kts 46°
2026-05-04 22:20 26.02356 -79.74317 14621 ft 435 kts 46°
2026-05-04 22:21 26.04357 -79.71759 15248 ft 439 kts 46°
2026-05-04 22:21 26.06368 -79.69187 15886 ft 443 kts 46°
2026-05-04 22:21 26.08401 -79.66587 16503 ft 447 kts 46°
2026-05-04 22:21 26.10451 -79.63964 17123 ft 451 kts 46°
2026-05-04 22:22 26.12403 -79.61257 17700 ft 457 kts 51°
2026-05-04 22:22 26.14253 -79.58349 18266 ft 463 kts 53°
2026-05-04 22:22 26.16068 -79.55366 18782 ft 467 kts 53°
2026-05-04 22:22 26.17898 -79.52364 19278 ft 471 kts 53°
2026-05-04 22:23 26.19763 -79.49353 19814 ft 474 kts 52°
2026-05-04 22:23 26.21662 -79.46333 20349 ft 477 kts 52°
2026-05-04 22:23 26.23583 -79.43303 20841 ft 481 kts 52°
2026-05-04 22:23 26.25525 -79.40244 21323 ft 485 kts 52°
2026-05-04 22:24 26.27477 -79.37164 21814 ft 488 kts 52°
2026-05-04 22:24 26.29636 -79.34257 22180 ft 487 kts 38°
2026-05-04 22:24 26.32371 -79.32086 22537 ft 482 kts 26°
2026-05-04 22:24 26.35260 -79.30151 22927 ft 487 kts 26°
2026-05-04 22:25 26.38175 -79.28189 23395 ft 491 kts 27°
2026-05-04 22:25 26.41093 -79.26190 23820 ft 494 kts 27°
2026-05-04 22:25 26.44010 -79.24156 24224 ft 496 kts 28°
2026-05-04 22:25 26.46936 -79.22088 24651 ft 499 kts 28°
2026-05-04 22:26 26.49874 -79.19994 25011 ft 503 kts 28°
2026-05-04 22:26 26.52832 -79.17878 25390 ft 506 kts 28°
2026-05-04 22:26 26.55801 -79.15750 25790 ft 508 kts 28°
2026-05-04 22:26 26.58791 -79.13607 26188 ft 511 kts 28°
2026-05-04 22:27 26.61789 -79.11458 26559 ft 513 kts 28°
2026-05-04 22:27 26.64803 -79.09299 26933 ft 516 kts 28°
2026-05-04 22:27 26.67834 -79.07127 27290 ft 519 kts 28°
2026-05-04 22:27 26.70844 -79.04969 27639 ft 521 kts 27°
2026-05-04 22:28 26.73901 -79.02776 28030 ft 523 kts 27°
2026-05-04 22:28 26.76967 -79.00575 28403 ft 525 kts 27°
2026-05-04 22:28 26.80042 -78.98366 28737 ft 527 kts 27°
2026-05-04 22:28 26.83139 -78.96140 29048 ft 530 kts 27°
2026-05-04 22:29 26.86247 -78.93905 29388 ft 531 kts 27°
2026-05-04 22:29 26.89352 -78.91669 29820 ft 530 kts 27°
2026-05-04 22:29 26.92444 -78.89440 30279 ft 528 kts 27°
2026-05-04 22:29 26.95533 -78.87212 30676 ft 526 kts 27°
2026-05-04 22:30 26.98609 -78.84992 31024 ft 526 kts 27°
2026-05-04 22:30 27.01686 -78.82773 31324 ft 526 kts 27°
2026-05-04 22:30 27.04766 -78.80549 31671 ft 527 kts 26°
2026-05-04 22:30 27.07843 -78.78326 31982 ft 526 kts 26°
2026-05-04 22:31 27.10925 -78.76097 32294 ft 526 kts 26°
2026-05-04 22:31 27.13999 -78.73873 32621 ft 526 kts 26°
2026-05-04 22:31 27.17075 -78.71645 32921 ft 526 kts 26°
2026-05-04 22:32 27.23219 -78.67193 33014 ft 530 kts 27°
2026-05-04 22:32 27.29290 -78.62520 33007 ft 532 kts 38°
2026-05-04 22:33 27.34047 -78.56053 33030 ft 541 kts 49°
2026-05-04 22:33 27.38563 -78.49247 33035 ft 544 kts 49°
2026-05-04 22:34 27.43181 -78.42471 33049 ft 546 kts 48°
2026-05-04 22:34 27.47877 -78.35745 33038 ft 546 kts 47°
2026-05-04 22:35 27.52580 -78.29046 33030 ft 544 kts 47°
2026-05-04 22:35 27.57263 -78.22352 33078 ft 542 kts 47°
2026-05-04 22:36 27.61895 -78.15709 33039 ft 542 kts 47°
2026-05-04 22:36 27.66542 -78.09029 33031 ft 541 kts 47°
2026-05-04 22:37 27.71182 -78.02350 33039 ft 541 kts 47°
2026-05-04 22:37 27.75819 -77.95666 33032 ft 541 kts 47°
2026-05-04 22:38 27.80458 -77.88969 33042 ft 541 kts 48°
2026-05-04 22:38 27.85101 -77.82255 33056 ft 543 kts 48°
2026-05-04 22:39 27.89755 -77.75516 33049 ft 544 kts 48°
2026-05-04 22:39 27.94415 -77.68757 33049 ft 545 kts 48°
2026-05-04 22:40 27.99074 -77.61987 33044 ft 546 kts 48°
2026-05-04 22:40 28.03736 -77.55203 33042 ft 546 kts 48°
2026-05-04 22:41 28.08396 -77.48411 33044 ft 546 kts 48°
2026-05-04 22:41 28.13056 -77.41611 33044 ft 547 kts 48°
2026-05-04 22:42 28.17729 -77.34779 33053 ft 548 kts 48°
2026-05-04 22:42 28.22374 -77.27977 33048 ft 549 kts 48°
2026-05-04 22:43 28.27051 -77.21116 33028 ft 550 kts 48°
2026-05-04 22:43 28.31721 -77.14255 33056 ft 549 kts 48°
2026-05-04 22:44 28.36387 -77.07388 33058 ft 549 kts 48°
2026-05-04 22:44 28.41053 -77.00511 33053 ft 550 kts 48°
2026-05-04 22:45 28.45721 -76.93620 33047 ft 550 kts 49°
2026-05-04 22:45 28.52713 -76.83276 33047 ft 550 kts 49°
2026-05-04 22:46 28.57371 -76.76371 33056 ft 550 kts 49°
2026-05-04 22:46 28.62026 -76.69460 33069 ft 551 kts 48°
2026-05-04 22:47 28.66679 -76.62538 33054 ft 550 kts 48°
2026-05-04 22:47 28.71291 -76.55652 33059 ft 551 kts 50°
2026-05-04 22:48 28.75331 -76.48209 33061 ft 554 kts 59°
2026-05-04 22:48 28.78892 -76.40402 33061 ft 555 kts 60°
2026-05-04 22:49 28.82471 -76.32606 33062 ft 555 kts 59°
2026-05-04 22:49 28.85532 -76.26173 33071 ft 556 kts 58°
2026-05-04 22:50 28.89271 -76.18452 33064 ft 556 kts 58°
2026-05-04 22:50 28.93012 -76.10729 33050 ft 556 kts 58°
2026-05-04 22:51 28.96738 -76.02992 33060 ft 555 kts 58°
2026-05-04 22:51 29.00453 -75.95250 33062 ft 555 kts 58°
2026-05-04 22:52 29.04164 -75.87498 33061 ft 555 kts 58°
2026-05-04 22:52 29.07840 -75.79806 33103 ft 555 kts 58°
2026-05-04 22:53 29.11543 -75.72047 33062 ft 556 kts 58°
2026-05-04 22:53 29.15239 -75.64284 33062 ft 555 kts 58°
2026-05-04 22:54 29.18930 -75.56519 33065 ft 555 kts 58°
2026-05-04 22:54 29.22618 -75.48744 33065 ft 556 kts 58°
2026-05-04 22:55 29.26302 -75.40963 33059 ft 556 kts 58°
2026-05-04 22:55 29.29976 -75.33187 33102 ft 555 kts 58°
2026-05-04 22:56 29.33652 -75.25395 33070 ft 555 kts 59°
2026-05-04 22:56 29.37298 -75.17647 33069 ft 555 kts 59°
2026-05-04 22:57 29.40963 -75.09846 33071 ft 555 kts 59°
2026-05-04 22:57 29.44623 -75.02040 33067 ft 555 kts 59°
2026-05-04 22:58 29.48276 -74.94233 33073 ft 555 kts 59°
2026-05-04 22:58 29.51922 -74.86426 33076 ft 555 kts 59°
2026-05-04 22:59 29.55574 -74.78590 33072 ft 557 kts 59°
2026-05-04 22:59 29.59221 -74.70751 33079 ft 556 kts 59°
2026-05-04 23:00 29.62861 -74.62909 33077 ft 556 kts 59°
2026-05-04 23:00 29.66496 -74.55064 33092 ft 556 kts 59°
2026-05-04 23:01 29.70127 -74.47211 33085 ft 556 kts 59°
2026-05-04 23:01 29.73727 -74.39410 33085 ft 556 kts 59°
2026-05-04 23:02 29.77343 -74.31559 33089 ft 555 kts 59°
2026-05-04 23:02 29.80956 -74.23699 33095 ft 555 kts 59°
2026-05-04 23:03 29.84562 -74.15836 33086 ft 555 kts 59°
2026-05-04 23:03 29.88165 -74.07966 33083 ft 555 kts 60°
2026-05-04 23:04 29.91764 -74.00090 33078 ft 556 kts 60°
2026-05-04 23:04 29.95361 -73.92199 33088 ft 556 kts 60°
2026-05-04 23:05 29.98954 -73.84303 33087 ft 556 kts 60°
2026-05-04 23:05 30.02541 -73.76403 33088 ft 556 kts 60°
2026-05-04 23:06 30.06123 -73.68498 33095 ft 556 kts 60°
2026-05-04 23:06 30.09699 -73.60591 33098 ft 555 kts 60°
2026-05-04 23:07 30.13267 -73.52686 33100 ft 555 kts 60°
2026-05-04 23:07 30.16828 -73.44778 33108 ft 555 kts 60°
2026-05-04 23:08 30.20389 -73.36857 33109 ft 555 kts 60°
2026-05-04 23:08 30.23942 -73.28934 33085 ft 555 kts 60°
2026-05-04 23:09 30.27487 -73.21013 33107 ft 554 kts 60°
2026-05-04 23:09 30.31021 -73.13101 33115 ft 553 kts 60°
2026-05-04 23:10 30.34553 -73.05178 33111 ft 553 kts 60°
2026-05-04 23:10 30.38054 -72.97309 33112 ft 553 kts 60°
2026-05-04 23:11 30.41578 -72.89371 33121 ft 554 kts 61°
2026-05-04 23:11 30.45097 -72.81424 33116 ft 554 kts 61°
2026-05-04 23:12 30.48608 -72.73481 33116 ft 554 kts 61°
2026-05-04 23:12 30.52114 -72.65534 33118 ft 553 kts 61°
2026-05-04 23:13 30.55614 -72.57583 33111 ft 553 kts 61°
2026-05-04 23:13 30.59112 -72.49623 33122 ft 553 kts 61°
2026-05-04 23:14 30.62611 -72.41648 33127 ft 554 kts 61°
2026-05-04 23:14 30.66102 -72.33672 33128 ft 554 kts 61°
2026-05-04 23:15 30.69585 -72.25696 33129 ft 554 kts 61°
2026-05-04 23:15 30.73040 -72.17768 33128 ft 553 kts 62°
2026-05-04 23:16 30.76511 -72.09785 33134 ft 553 kts 62°
2026-05-04 23:16 30.79978 -72.01794 33166 ft 553 kts 62°
2026-05-04 23:17 30.83441 -71.93798 33142 ft 554 kts 62°
2026-05-04 23:17 30.86901 -71.85792 33133 ft 553 kts 62°
2026-05-04 23:18 30.90354 -71.77781 33142 ft 553 kts 62°
2026-05-04 23:18 30.93801 -71.69768 33142 ft 553 kts 62°
2026-05-04 23:19 30.97243 -71.61750 33144 ft 553 kts 62°
2026-05-04 23:19 31.00681 -71.53726 33156 ft 554 kts 63°
2026-05-04 23:20 31.04119 -71.45681 33144 ft 554 kts 63°
2026-05-04 23:20 31.07555 -71.37625 33148 ft 555 kts 63°
2026-05-04 23:21 31.10988 -71.29558 33146 ft 555 kts 63°
2026-05-04 23:21 31.14418 -71.21481 33148 ft 556 kts 63°
2026-05-04 23:22 31.17844 -71.13396 33149 ft 556 kts 63°
2026-05-04 23:22 31.21267 -71.05300 33162 ft 556 kts 63°
2026-05-04 23:23 31.24688 -70.97189 33154 ft 557 kts 63°
2026-05-04 23:23 31.28106 -70.89068 33158 ft 557 kts 63°
2026-05-04 23:24 31.31520 -70.80940 33154 ft 556 kts 63°
2026-05-04 23:24 31.34923 -70.72819 33162 ft 556 kts 63°
2026-05-04 23:25 31.38326 -70.64679 33161 ft 557 kts 63°
2026-05-04 23:25 31.41705 -70.56577 33155 ft 558 kts 63°
2026-05-04 23:26 31.45113 -70.48391 33158 ft 558 kts 64°
2026-05-04 23:26 31.48508 -70.40215 33161 ft 558 kts 64°
2026-05-04 23:27 31.51897 -70.32033 33166 ft 558 kts 64°
2026-05-04 23:27 31.55278 -70.23851 33167 ft 558 kts 64°
2026-05-04 23:28 31.58654 -70.15662 33195 ft 558 kts 64°
2026-05-04 23:28 31.62028 -70.07459 33176 ft 559 kts 64°
2026-05-04 23:29 31.65403 -69.99234 33172 ft 560 kts 64°
2026-05-04 23:29 31.68780 -69.90987 33172 ft 561 kts 64°
2026-05-04 23:30 31.72153 -69.82732 33159 ft 561 kts 65°
2026-05-04 23:30 31.75518 -69.74474 33176 ft 560 kts 65°
2026-05-04 23:31 31.78879 -69.66210 33180 ft 560 kts 65°
2026-05-04 23:31 31.82233 -69.57940 33175 ft 560 kts 65°
2026-05-04 23:32 31.85578 -69.49679 33153 ft 559 kts 66°
2026-05-04 23:32 31.88897 -69.41457 33177 ft 560 kts 66°
2026-05-04 23:33 31.92242 -69.33153 33181 ft 562 kts 66°
2026-05-04 23:33 31.95588 -69.24827 33198 ft 564 kts 66°
2026-05-04 23:34 31.98942 -69.16464 33158 ft 565 kts 66°
2026-05-04 23:34 32.02293 -69.08087 33182 ft 565 kts 66°
2026-05-04 23:35 32.05640 -68.99700 33182 ft 566 kts 66°
2026-05-04 23:35 32.08986 -68.91296 33179 ft 566 kts 66°
2026-05-04 23:36 32.11762 -68.84308 33149 ft 566 kts 67°
2026-05-04 23:36 32.15100 -68.75888 33182 ft 567 kts 67°
2026-05-04 23:37 32.18976 -68.66082 33178 ft 567 kts 67°
2026-05-04 23:37 32.21768 -68.59004 33176 ft 568 kts 67°
2026-05-04 23:38 32.25097 -68.50544 33157 ft 568 kts 68°
2026-05-04 23:38 32.28419 -68.42082 33174 ft 568 kts 68°
2026-05-04 23:39 32.31738 -68.33606 33188 ft 569 kts 68°
2026-05-04 23:39 32.35061 -68.25098 33182 ft 570 kts 68°
2026-05-04 23:40 32.38324 -68.16539 33154 ft 570 kts 69°
2026-05-04 23:40 32.41458 -68.07941 33174 ft 569 kts 70°
2026-05-04 23:41 32.44575 -67.99332 33181 ft 568 kts 70°
2026-05-04 23:41 32.47702 -67.90740 33222 ft 568 kts 70°
2026-05-04 23:42 32.50820 -67.82190 33186 ft 569 kts 70°
2026-05-04 23:42 32.53957 -67.73571 33184 ft 570 kts 70°
2026-05-04 23:43 32.57089 -67.64939 33182 ft 570 kts 70°
2026-05-04 23:43 32.60215 -67.56295 33184 ft 570 kts 70°
2026-05-04 23:44 32.63335 -67.47647 33179 ft 570 kts 70°
2026-05-04 23:44 32.66448 -67.38994 33185 ft 571 kts 70°
2026-05-04 23:45 32.69562 -67.30316 33183 ft 571 kts 70°
2026-05-04 23:45 32.72672 -67.21628 33151 ft 572 kts 70°
2026-05-04 23:46 32.75771 -67.12951 33179 ft 569 kts 71°
2026-05-04 23:46 32.78853 -67.04295 33179 ft 568 kts 71°
2026-05-04 23:47 32.81921 -66.95656 33184 ft 568 kts 71°
2026-05-04 23:47 32.84991 -66.86986 33166 ft 569 kts 71°
2026-05-04 23:48 32.88052 -66.78323 33181 ft 568 kts 71°
2026-05-04 23:48 32.91103 -66.69665 33188 ft 567 kts 71°
2026-05-04 23:49 32.94142 -66.61017 33187 ft 566 kts 71°
2026-05-04 23:49 32.97172 -66.52371 33202 ft 565 kts 71°
2026-05-04 23:50 33.00191 -66.43732 33184 ft 565 kts 71°
2026-05-04 23:50 33.03207 -66.35082 33192 ft 565 kts 71°
2026-05-04 23:51 33.06218 -66.26419 33190 ft 566 kts 71°
2026-05-04 23:51 33.09222 -66.17755 33188 ft 565 kts 71°
2026-05-04 23:52 33.12218 -66.09094 33212 ft 565 kts 71°
2026-05-04 23:52 33.15213 -66.00411 33194 ft 566 kts 71°
2026-05-04 23:53 33.18188 -65.91763 33160 ft 567 kts 71°
2026-05-04 23:53 33.21175 -65.83054 33187 ft 567 kts 71°
2026-05-04 23:54 33.24155 -65.74344 33188 ft 567 kts 71°
2026-05-04 23:54 33.27133 -65.65617 33219 ft 567 kts 71°
2026-05-04 23:55 33.30108 -65.56872 33182 ft 567 kts 71°
2026-05-04 23:56 33.34553 -65.43767 33191 ft 567 kts 71°
2026-05-04 23:56 33.37505 -65.35029 33182 ft 566 kts 71°
2026-05-04 23:57 33.40430 -65.26350 33173 ft 566 kts 71°
2026-05-04 23:57 33.43365 -65.17618 33183 ft 565 kts 71°
2026-05-04 23:58 33.46289 -65.08894 33185 ft 564 kts 71°
2026-05-04 23:58 33.49204 -65.00172 33184 ft 563 kts 72°
2026-05-04 23:59 33.52110 -64.91454 33179 ft 563 kts 71°
2026-05-04 23:59 33.55010 -64.82727 33181 ft 563 kts 71°
2026-05-05 00:00 33.57903 -64.74001 33193 ft 564 kts 71°
2026-05-05 00:00 33.60779 -64.65297 33189 ft 565 kts 72°
2026-05-05 00:01 33.63673 -64.56517 33190 ft 566 kts 72°
2026-05-05 00:01 33.66564 -64.47723 33189 ft 566 kts 72°
2026-05-05 00:02 33.69451 -64.38915 33191 ft 567 kts 72°
2026-05-05 00:02 33.72330 -64.30106 33193 ft 567 kts 72°
2026-05-05 00:03 33.75205 -64.21283 33190 ft 567 kts 72°
2026-05-05 00:03 33.78078 -64.12444 33191 ft 567 kts 72°
2026-05-05 00:04 33.80926 -64.03655 33176 ft 567 kts 72°
2026-05-05 00:04 33.83777 -63.94831 33188 ft 565 kts 72°
2026-05-05 00:05 33.86613 -63.86030 33191 ft 564 kts 72°
2026-05-05 00:05 33.89446 -63.77208 33192 ft 564 kts 72°
2026-05-05 00:06 33.92271 -63.68391 33190 ft 564 kts 72°
2026-05-05 00:06 33.95083 -63.59587 33191 ft 563 kts 72°
2026-05-05 00:07 33.97884 -63.50792 33194 ft 562 kts 72°
2026-05-05 00:07 34.00682 -63.41980 33161 ft 564 kts 72°
2026-05-05 00:08 34.03459 -63.33211 33193 ft 563 kts 72°
2026-05-05 00:08 34.06244 -63.24388 33194 ft 563 kts 72°
2026-05-05 00:09 34.09027 -63.15551 33198 ft 563 kts 72°
2026-05-05 00:09 34.11800 -63.06713 33188 ft 563 kts 72°
2026-05-05 00:10 34.14567 -62.97872 33199 ft 563 kts 72°
2026-05-05 00:10 34.17333 -62.89009 33198 ft 563 kts 72°
2026-05-05 00:11 34.20088 -62.80153 33172 ft 563 kts 72°
2026-05-05 00:11 34.22835 -62.71296 33196 ft 563 kts 72°
2026-05-05 00:12 34.25578 -62.62428 33225 ft 563 kts 72°
2026-05-05 00:12 34.28314 -62.53554 33202 ft 563 kts 72°
2026-05-05 00:13 34.31028 -62.44724 33188 ft 563 kts 72°
2026-05-05 00:13 34.33748 -62.35850 33196 ft 563 kts 72°
2026-05-05 00:14 34.36462 -62.26967 33203 ft 563 kts 72°
2026-05-05 00:14 34.39328 -62.18150 33197 ft 565 kts 65°
2026-05-05 00:15 34.43428 -62.10022 33210 ft 566 kts 53°
2026-05-05 00:15 34.48613 -62.02862 33217 ft 565 kts 45°
2026-05-05 00:16 34.54044 -61.95956 33208 ft 566 kts 45°
2026-05-05 00:16 34.59457 -61.88992 33198 ft 567 kts 46°
2026-05-05 00:17 34.64826 -61.81975 33213 ft 567 kts 46°
2026-05-05 00:17 34.70179 -61.74937 33211 ft 567 kts 46°
2026-05-05 00:18 34.75531 -61.67891 33217 ft 567 kts 47°
2026-05-05 00:18 34.80842 -61.60892 33210 ft 566 kts 47°
2026-05-05 00:19 34.86180 -61.53845 33216 ft 566 kts 47°
2026-05-05 00:19 34.91514 -61.46790 33213 ft 565 kts 47°
2026-05-05 00:20 34.96834 -61.39739 33215 ft 565 kts 47°
2026-05-05 00:20 35.02151 -61.32677 33190 ft 565 kts 46°
2026-05-05 00:21 35.07463 -61.25606 33230 ft 565 kts 46°
2026-05-05 00:21 35.12780 -61.18515 33221 ft 566 kts 47°
2026-05-05 00:22 35.18097 -61.11408 33224 ft 567 kts 47°
2026-05-05 00:22 35.23413 -61.04287 33233 ft 568 kts 47°
2026-05-05 00:23 35.28736 -60.97142 33227 ft 567 kts 47°
2026-05-05 00:23 35.33153 -60.91202 33225 ft 567 kts 47°
2026-05-05 00:24 35.38457 -60.84055 33240 ft 567 kts 47°
2026-05-05 00:24 35.44628 -60.75722 33228 ft 568 kts 47°
2026-05-05 00:25 35.49078 -60.69700 33227 ft 568 kts 47°
2026-05-05 00:25 35.54370 -60.62523 33226 ft 567 kts 47°
2026-05-05 00:26 35.59655 -60.55342 33226 ft 567 kts 48°
2026-05-05 00:26 35.64938 -60.48148 33232 ft 566 kts 48°
2026-05-05 00:27 35.70176 -60.40999 33228 ft 566 kts 47°
2026-05-05 00:27 35.75442 -60.33799 33235 ft 566 kts 48°
2026-05-05 00:28 35.80717 -60.26568 33231 ft 567 kts 48°
2026-05-05 00:28 35.85984 -60.19333 33235 ft 567 kts 48°
2026-05-05 00:29 35.91258 -60.12072 33238 ft 569 kts 48°
2026-05-05 00:29 35.96536 -60.04792 33218 ft 569 kts 48°
2026-05-05 00:30 36.01437 -59.97136 33237 ft 568 kts 58°
2026-05-05 00:30 36.05390 -59.88698 33235 ft 567 kts 63°
2026-05-05 00:31 36.09218 -59.80229 33244 ft 568 kts 63°
2026-05-05 00:31 36.13106 -59.71725 33243 ft 568 kts 62°
2026-05-05 00:32 36.17022 -59.63234 33240 ft 568 kts 63°
2026-05-05 00:32 36.20945 -59.54730 33243 ft 568 kts 62°
2026-05-05 00:33 36.24851 -59.46231 33237 ft 567 kts 62°
2026-05-05 00:33 36.28744 -59.37730 33241 ft 566 kts 63°
2026-05-05 00:34 36.32628 -59.29223 33227 ft 567 kts 63°
2026-05-05 00:34 36.36506 -59.20709 33240 ft 567 kts 63°
2026-05-05 00:35 36.40377 -59.12190 33237 ft 567 kts 63°
2026-05-05 00:35 36.44242 -59.03661 33233 ft 567 kts 63°
2026-05-05 00:36 36.48099 -58.95130 33239 ft 566 kts 62°
2026-05-05 00:36 36.51922 -58.86653 33235 ft 566 kts 62°
2026-05-05 00:37 36.55763 -58.78114 33234 ft 566 kts 63°
2026-05-05 00:37 36.59597 -58.69565 33236 ft 566 kts 63°
2026-05-05 00:38 36.63429 -58.61001 33242 ft 566 kts 63°
2026-05-05 00:38 36.67256 -58.52425 33242 ft 567 kts 63°
2026-05-05 00:39 36.71088 -58.43815 33231 ft 569 kts 63°
2026-05-05 00:39 36.74922 -58.35179 33239 ft 570 kts 63°
2026-05-05 00:40 36.78759 -58.26513 33247 ft 570 kts 63°
2026-05-05 00:40 36.82589 -58.17842 33233 ft 572 kts 63°
2026-05-05 00:41 36.86398 -58.09191 33249 ft 572 kts 63°
2026-05-05 00:41 36.90224 -58.00484 33256 ft 572 kts 63°
2026-05-05 00:42 36.94045 -57.91761 33229 ft 573 kts 63°
2026-05-05 00:42 36.97865 -57.83019 33244 ft 572 kts 63°
2026-05-05 00:43 37.01670 -57.74288 33246 ft 571 kts 63°
2026-05-05 00:43 37.05465 -57.65555 33280 ft 571 kts 63°
2026-05-05 00:44 37.09261 -57.56797 33254 ft 572 kts 63°
2026-05-05 00:44 37.13052 -57.48025 33255 ft 573 kts 63°
2026-05-05 00:45 37.16843 -57.39233 33280 ft 573 kts 63°
2026-05-05 00:45 37.20635 -57.30412 33256 ft 574 kts 63°
2026-05-05 00:46 37.24422 -57.21579 33254 ft 575 kts 63°
2026-05-05 00:46 37.28177 -57.12797 33255 ft 575 kts 63°
2026-05-05 00:47 37.31953 -57.03942 33253 ft 575 kts 63°
2026-05-05 00:47 37.35720 -56.95082 33258 ft 574 kts 63°
2026-05-05 00:48 37.39479 -56.86220 33252 ft 574 kts 63°
2026-05-05 00:48 37.43227 -56.77355 33254 ft 574 kts 63°
2026-05-05 00:49 37.46971 -56.68478 33256 ft 574 kts 63°
2026-05-05 00:49 37.50707 -56.59595 33259 ft 574 kts 63°
2026-05-05 00:50 37.54434 -56.50709 33267 ft 574 kts 63°
2026-05-05 00:50 37.58157 -56.41805 33259 ft 574 kts 63°
2026-05-05 00:51 37.61874 -56.32893 33255 ft 574 kts 63°
2026-05-05 00:51 37.65578 -56.23987 33252 ft 570 kts 63°
2026-05-05 00:52 37.69223 -56.15198 33253 ft 566 kts 63°
2026-05-05 00:52 37.72855 -56.06417 33250 ft 563 kts 63°
2026-05-05 00:53 37.76477 -55.97635 33270 ft 569 kts 64°
2026-05-05 00:53 37.80158 -55.88679 33270 ft 577 kts 64°
2026-05-05 00:54 37.83849 -55.79682 33259 ft 575 kts 64°
2026-05-05 00:54 37.87516 -55.70716 33258 ft 573 kts 64°
2026-05-05 00:55 37.91170 -55.61757 33261 ft 572 kts 64°
2026-05-05 00:55 37.94812 -55.52798 33260 ft 572 kts 64°
2026-05-05 00:56 37.98421 -55.43897 33262 ft 572 kts 64°
2026-05-05 00:56 38.02060 -55.34895 33260 ft 574 kts 64°
2026-05-05 00:57 38.05704 -55.25856 33229 ft 575 kts 64°
2026-05-05 00:57 38.09336 -55.16820 33254 ft 575 kts 64°
2026-05-05 00:58 38.12968 -55.07757 33256 ft 576 kts 64°
2026-05-05 00:58 38.16596 -54.98679 33237 ft 576 kts 64°
2026-05-05 00:59 38.20211 -54.89608 33254 ft 575 kts 64°
2026-05-05 00:59 38.23821 -54.80521 33252 ft 575 kts 64°
2026-05-05 01:00 38.27396 -54.71497 33244 ft 574 kts 63°
2026-05-05 01:00 38.30986 -54.62408 33256 ft 575 kts 64°
2026-05-05 01:01 38.34577 -54.53288 33258 ft 576 kts 64°
2026-05-05 01:01 38.38162 -54.44156 33277 ft 576 kts 63°
2026-05-05 01:02 38.41749 -54.34995 33257 ft 578 kts 64°
2026-05-05 01:02 38.45338 -54.25802 33257 ft 579 kts 64°
2026-05-05 01:03 38.48918 -54.16600 33267 ft 579 kts 63°
2026-05-05 01:03 38.52495 -54.07382 33257 ft 580 kts 63°
2026-05-05 01:04 38.56070 -53.98140 33227 ft 580 kts 63°
2026-05-05 01:04 38.61391 -53.84330 33256 ft 580 kts 63°
2026-05-05 01:05 38.64948 -53.75066 33254 ft 580 kts 64°
2026-05-05 01:05 38.68494 -53.65801 33247 ft 578 kts 64°
2026-05-05 01:06 38.72019 -53.56561 33248 ft 577 kts 64°
2026-05-05 01:06 38.75531 -53.47329 33251 ft 575 kts 64°
2026-05-05 01:07 38.79028 -53.38107 33265 ft 575 kts 64°
2026-05-05 01:07 38.82518 -53.28876 33255 ft 576 kts 64°
2026-05-05 01:08 38.85987 -53.19675 33252 ft 577 kts 64°
2026-05-05 01:08 38.89476 -53.10388 33254 ft 578 kts 64°
2026-05-05 01:09 38.92963 -53.01081 33252 ft 579 kts 64°
2026-05-05 01:09 38.96448 -52.91749 33257 ft 579 kts 64°
2026-05-05 01:10 38.99933 -52.82386 33247 ft 580 kts 64°
2026-05-05 01:10 39.03409 -52.73021 33233 ft 579 kts 64°
2026-05-05 01:11 39.06868 -52.63671 33247 ft 578 kts 64°
2026-05-05 01:11 39.10288 -52.54396 33243 ft 577 kts 64°
2026-05-05 01:12 39.13721 -52.45059 33245 ft 576 kts 64°
2026-05-05 01:12 39.17141 -52.35729 33242 ft 575 kts 64°
2026-05-05 01:13 39.20552 -52.26391 33247 ft 576 kts 64°
2026-05-05 01:13 39.23382 -52.18622 33245 ft 576 kts 64°
2026-05-05 01:14 39.26789 -52.09243 33250 ft 577 kts 65°
2026-05-05 01:14 39.30198 -51.99827 33247 ft 579 kts 65°
2026-05-05 01:15 39.33604 -51.90392 33245 ft 580 kts 65°
2026-05-05 01:15 39.37001 -51.80949 33230 ft 580 kts 65°
2026-05-05 01:16 39.40366 -51.71563 33239 ft 578 kts 65°
2026-05-05 01:16 39.43737 -51.62134 33250 ft 577 kts 65°
2026-05-05 01:17 39.47092 -51.52717 33244 ft 576 kts 65°
2026-05-05 01:17 39.50436 -51.43301 33243 ft 575 kts 65°
2026-05-05 01:18 39.53766 -51.33895 33247 ft 574 kts 65°
2026-05-05 01:18 39.57085 -51.24487 33244 ft 573 kts 65°
2026-05-05 01:19 39.60395 -51.15078 33244 ft 573 kts 65°
2026-05-05 01:19 39.63694 -51.05665 33245 ft 573 kts 65°
2026-05-05 01:20 39.66984 -50.96251 33245 ft 573 kts 65°
2026-05-05 01:20 39.70268 -50.86821 33227 ft 573 kts 65°
2026-05-05 01:21 39.73542 -50.77389 33240 ft 572 kts 66°
2026-05-05 01:21 39.76781 -50.68027 33244 ft 571 kts 66°
2026-05-05 01:22 39.80034 -50.58596 33250 ft 571 kts 66°
2026-05-05 01:22 39.83274 -50.49170 33252 ft 571 kts 66°
2026-05-05 01:23 39.86516 -50.39708 33250 ft 572 kts 66°
2026-05-05 01:23 39.89753 -50.30226 33253 ft 573 kts 66°
2026-05-05 01:24 39.92989 -50.20716 33248 ft 575 kts 66°
2026-05-05 01:24 39.96226 -50.11171 33249 ft 576 kts 66°
2026-05-05 01:25 39.99459 -50.01603 33256 ft 577 kts 66°
2026-05-05 01:25 40.02168 -49.91835 33231 ft 576 kts 73°
2026-05-05 01:26 40.04584 -49.81880 33246 ft 575 kts 73°
2026-05-05 01:26 40.06987 -49.71942 33246 ft 573 kts 73°
2026-05-05 01:27 40.09416 -49.62036 33255 ft 571 kts 73°
2026-05-05 01:27 40.11845 -49.52174 33249 ft 570 kts 73°
2026-05-05 01:28 40.14259 -49.42335 33249 ft 568 kts 73°
2026-05-05 01:28 40.16657 -49.32505 33260 ft 567 kts 73°
2026-05-05 01:29 40.19040 -49.22686 33249 ft 566 kts 73°
2026-05-05 01:29 40.21410 -49.12877 33259 ft 564 kts 73°
2026-05-05 01:30 40.23766 -49.03088 33255 ft 564 kts 73°
2026-05-05 01:30 40.26111 -48.93305 33257 ft 563 kts 73°
2026-05-05 01:31 40.28448 -48.83515 33260 ft 563 kts 73°
2026-05-05 01:31 40.30777 -48.73716 33257 ft 564 kts 73°
2026-05-05 01:32 40.33109 -48.63861 33256 ft 567 kts 73°
2026-05-05 01:32 40.35429 -48.54015 33257 ft 570 kts 73°
2026-05-05 01:33 40.37765 -48.44062 33246 ft 572 kts 73°
2026-05-05 01:33 40.40095 -48.34090 33258 ft 572 kts 73°
2026-05-05 01:34 40.42415 -48.24115 33253 ft 571 kts 73°
2026-05-05 01:34 40.44724 -48.14145 33254 ft 570 kts 73°
2026-05-05 01:35 40.47019 -48.04192 33254 ft 569 kts 74°
2026-05-05 01:35 40.49304 -47.94236 33256 ft 568 kts 74°
2026-05-05 01:36 40.51575 -47.84300 33256 ft 568 kts 74°
2026-05-05 01:36 40.53837 -47.74358 33257 ft 568 kts 74°
2026-05-05 01:37 40.56089 -47.64417 33251 ft 566 kts 74°
2026-05-05 01:37 40.58311 -47.54562 33252 ft 565 kts 74°
2026-05-05 01:38 40.60549 -47.44595 33262 ft 564 kts 74°
2026-05-05 01:38 40.62744 -47.34774 33251 ft 563 kts 74°
2026-05-05 01:39 40.64943 -47.24892 33252 ft 562 kts 74°
2026-05-05 01:39 40.67131 -47.15017 33263 ft 561 kts 74°
2026-05-05 01:40 40.69310 -47.05134 33254 ft 561 kts 74°
2026-05-05 01:40 40.71482 -46.95240 33248 ft 562 kts 74°
2026-05-05 01:41 40.73645 -46.85342 33245 ft 561 kts 74°
2026-05-05 01:41 40.75796 -46.75449 33241 ft 561 kts 74°
2026-05-05 01:42 40.77940 -46.65548 33251 ft 562 kts 74°
2026-05-05 01:42 40.80078 -46.55630 33248 ft 562 kts 74°
2026-05-05 01:43 40.82197 -46.45753 33243 ft 563 kts 74°
2026-05-05 01:43 40.84326 -46.35786 33247 ft 564 kts 74°
2026-05-05 01:44 40.86448 -46.25804 33249 ft 565 kts 74°
2026-05-05 01:44 40.88564 -46.15800 33245 ft 566 kts 74°
2026-05-05 01:45 40.90671 -46.05794 33241 ft 565 kts 74°
2026-05-05 01:45 40.92768 -45.95786 33240 ft 563 kts 74°
2026-05-05 01:46 40.94849 -45.85809 33240 ft 562 kts 74°
2026-05-05 01:46 40.96919 -45.75836 33240 ft 561 kts 74°
2026-05-05 01:47 40.98977 -45.65874 33238 ft 560 kts 74°
2026-05-05 01:47 41.01025 -45.55916 33237 ft 560 kts 74°
2026-05-05 01:48 41.03047 -45.46032 33231 ft 560 kts 74°
2026-05-05 01:48 41.05079 -45.36055 33234 ft 561 kts 74°
2026-05-05 01:49 41.07103 -45.26066 33238 ft 562 kts 74°
2026-05-05 01:49 41.09123 -45.16049 33241 ft 563 kts 74°
2026-05-05 01:50 41.11140 -45.05998 33227 ft 564 kts 74°
2026-05-05 01:50 41.13150 -44.95928 33232 ft 565 kts 74°
2026-05-05 01:51 41.15156 -44.85833 33229 ft 566 kts 75°
2026-05-05 01:51 41.17154 -44.75726 33229 ft 566 kts 75°
2026-05-05 01:52 41.19143 -44.65610 33229 ft 566 kts 75°
2026-05-05 01:52 41.21122 -44.55499 33212 ft 565 kts 75°
2026-05-05 01:53 41.23087 -44.45406 33219 ft 563 kts 75°
2026-05-05 01:53 41.25039 -44.35329 33221 ft 562 kts 75°
2026-05-05 01:54 41.26968 -44.25322 33224 ft 562 kts 75°
2026-05-05 01:54 41.28898 -44.15257 33227 ft 562 kts 75°
2026-05-05 01:55 41.30822 -44.05170 33220 ft 563 kts 75°
2026-05-05 01:55 41.32739 -43.95068 33223 ft 563 kts 75°
2026-05-05 01:56 41.34652 -43.84937 33223 ft 564 kts 75°
2026-05-05 01:56 41.36543 -43.74866 33214 ft 564 kts 74°
2026-05-05 01:57 41.38435 -43.64735 33220 ft 563 kts 74°
2026-05-05 01:57 41.40316 -43.54611 33222 ft 562 kts 75°
2026-05-05 01:58 41.42185 -43.44504 33222 ft 562 kts 74°
2026-05-05 01:58 41.44043 -43.34395 33221 ft 561 kts 74°
2026-05-05 01:59 41.45892 -43.24291 33226 ft 561 kts 74°
2026-05-05 01:59 41.47727 -43.14200 33226 ft 560 kts 74°
2026-05-05 02:00 41.49556 -43.04093 33229 ft 561 kts 75°
2026-05-05 02:00 41.51377 -42.93976 33227 ft 561 kts 74°
2026-05-05 02:01 41.53187 -42.83857 33235 ft 560 kts 75°
2026-05-05 02:01 41.54988 -42.73741 33233 ft 560 kts 74°
2026-05-05 02:02 41.56477 -42.65334 33236 ft 559 kts 74°
2026-05-05 02:02 41.58549 -42.53572 33239 ft 559 kts 75°
2026-05-05 02:03 41.60032 -42.45108 33237 ft 559 kts 75°
2026-05-05 02:03 41.61795 -42.34991 33234 ft 559 kts 75°
2026-05-05 02:04 41.63539 -42.24928 33247 ft 559 kts 75°
2026-05-05 02:04 41.65285 -42.14794 33236 ft 559 kts 74°
2026-05-05 02:05 41.67023 -42.04651 33249 ft 559 kts 74°
2026-05-05 02:05 41.68749 -41.94522 33246 ft 558 kts 74°
2026-05-05 02:06 41.70465 -41.84391 33253 ft 558 kts 74°
2026-05-05 02:06 41.72170 -41.74270 33253 ft 558 kts 74°
2026-05-05 02:07 41.73868 -41.64137 33265 ft 557 kts 75°
2026-05-05 02:07 41.75555 -41.54002 33262 ft 557 kts 75°
2026-05-05 02:08 41.77232 -41.43874 33263 ft 557 kts 75°
2026-05-05 02:08 41.78899 -41.33746 33251 ft 557 kts 75°
2026-05-05 02:09 41.80555 -41.23621 33270 ft 556 kts 74°
2026-05-05 02:09 41.82201 -41.13503 33271 ft 555 kts 75°
2026-05-05 02:10 41.83838 -41.03384 33283 ft 555 kts 75°
2026-05-05 02:10 41.85454 -40.93330 33278 ft 555 kts 75°
2026-05-05 02:11 41.87072 -40.83203 33280 ft 555 kts 75°
2026-05-05 02:11 41.88682 -40.73071 33277 ft 555 kts 75°
2026-05-05 02:12 41.91077 -40.57874 33290 ft 555 kts 75°
2026-05-05 02:13 41.92662 -40.47744 33283 ft 554 kts 74°
2026-05-05 02:13 41.94235 -40.37621 33287 ft 552 kts 74°
2026-05-05 02:14 41.95795 -40.27526 33301 ft 551 kts 74°
2026-05-05 02:14 41.97343 -40.17454 33295 ft 550 kts 74°
2026-05-05 02:15 41.98870 -40.07456 33295 ft 549 kts 75°
2026-05-05 02:15 42.00903 -39.97634 33308 ft 542 kts 64°
2026-05-05 02:16 42.04009 -39.88495 33321 ft 536 kts 57°
2026-05-05 02:16 42.07313 -39.79504 33310 ft 537 kts 58°
2026-05-05 02:17 42.10588 -39.70457 33309 ft 538 kts 58°
2026-05-05 02:17 42.13835 -39.61350 33314 ft 539 kts 58°
2026-05-05 02:18 42.17073 -39.52208 33310 ft 539 kts 58°
2026-05-05 02:18 42.20300 -39.43068 33316 ft 539 kts 58°
2026-05-05 02:19 42.23495 -39.33999 33319 ft 539 kts 58°
2026-05-05 02:19 42.26704 -39.24865 33315 ft 538 kts 58°
2026-05-05 02:20 42.29901 -39.15735 33318 ft 537 kts 58°
2026-05-05 02:20 42.33085 -39.06611 33327 ft 536 kts 58°
2026-05-05 02:21 42.36254 -38.97503 33323 ft 535 kts 58°
2026-05-05 02:21 42.39412 -38.88393 33328 ft 534 kts 58°
2026-05-05 02:22 42.42557 -38.79294 33336 ft 533 kts 58°
2026-05-05 02:22 42.45691 -38.70196 33326 ft 533 kts 58°
2026-05-05 02:23 42.48817 -38.61093 33335 ft 532 kts 58°
2026-05-05 02:23 42.51931 -38.51993 33346 ft 532 kts 58°
2026-05-05 02:24 42.55011 -38.42964 33339 ft 530 kts 58°
2026-05-05 02:24 42.58087 -38.33909 33338 ft 527 kts 58°
2026-05-05 02:25 42.61148 -38.24872 33339 ft 525 kts 58°
2026-05-05 02:25 42.64187 -38.15874 33345 ft 523 kts 58°
2026-05-05 02:26 42.67218 -38.06875 33348 ft 523 kts 58°
2026-05-05 02:26 42.70239 -37.97874 33353 ft 524 kts 58°
2026-05-05 02:27 42.73237 -37.88907 33353 ft 524 kts 58°
2026-05-05 02:27 42.76247 -37.79879 33348 ft 524 kts 58°
2026-05-05 02:28 42.79246 -37.70850 33355 ft 523 kts 58°
2026-05-05 02:28 42.82238 -37.61811 33363 ft 523 kts 59°
2026-05-05 02:29 42.85218 -37.52779 33349 ft 521 kts 59°
2026-05-05 02:29 42.88180 -37.43771 33355 ft 520 kts 59°
2026-05-05 02:30 42.91134 -37.34760 33376 ft 519 kts 59°
2026-05-05 02:30 42.94050 -37.25830 33348 ft 518 kts 59°
2026-05-05 02:31 42.96973 -37.16853 33346 ft 517 kts 59°
2026-05-05 02:31 42.99887 -37.07874 33381 ft 516 kts 60°
2026-05-05 02:32 43.02787 -36.98908 33364 ft 515 kts 60°
2026-05-05 02:32 43.05673 -36.89950 33364 ft 514 kts 60°
2026-05-05 02:33 43.08552 -36.80987 33369 ft 514 kts 60°
2026-05-05 02:33 43.11421 -36.72030 33378 ft 513 kts 61°
2026-05-05 02:34 43.14275 -36.63083 33381 ft 512 kts 61°
2026-05-05 02:34 43.17102 -36.54192 33372 ft 512 kts 61°
2026-05-05 02:35 43.19936 -36.45249 33386 ft 511 kts 62°
2026-05-05 02:35 43.22759 -36.36313 33380 ft 510 kts 62°
2026-05-05 02:36 43.25568 -36.27388 33384 ft 510 kts 62°
2026-05-05 02:36 43.28370 -36.18454 33385 ft 509 kts 62°
2026-05-05 02:37 43.31163 -36.09523 33391 ft 508 kts 63°
2026-05-05 02:37 43.33941 -36.00605 33385 ft 507 kts 63°
2026-05-05 02:38 43.36709 -35.91689 33388 ft 506 kts 63°
2026-05-05 02:38 43.39462 -35.82793 33400 ft 505 kts 64°
2026-05-05 02:39 43.42206 -35.73896 33390 ft 505 kts 64°
2026-05-05 02:39 43.44937 -35.65011 33394 ft 504 kts 64°
2026-05-05 02:40 43.47660 -35.56120 33398 ft 504 kts 64°
2026-05-05 02:40 43.50357 -35.47287 33402 ft 504 kts 64°
2026-05-05 02:41 43.53064 -35.38387 33398 ft 503 kts 64°
2026-05-05 02:41 43.55765 -35.29480 33402 ft 504 kts 64°
2026-05-05 02:42 43.58457 -35.20568 33401 ft 504 kts 64°
2026-05-05 02:42 43.61146 -35.11638 33405 ft 504 kts 64°
2026-05-05 02:43 43.63827 -35.02701 33413 ft 504 kts 64°
2026-05-05 02:43 43.66503 -34.93750 33432 ft 504 kts 65°
2026-05-05 02:44 43.69175 -34.84783 33415 ft 505 kts 64°
2026-05-05 02:44 43.71839 -34.75811 33412 ft 504 kts 65°
2026-05-05 02:45 43.74493 -34.66837 33417 ft 504 kts 65°
2026-05-05 02:45 43.77139 -34.57861 33424 ft 504 kts 64°
2026-05-05 02:46 43.79778 -34.48879 33413 ft 503 kts 64°
2026-05-05 02:46 43.82386 -34.39967 33415 ft 502 kts 65°
2026-05-05 02:47 43.85021 -34.30936 33417 ft 502 kts 65°
2026-05-05 02:47 43.87609 -34.22030 33417 ft 501 kts 64°
2026-05-05 02:48 43.90202 -34.13076 33425 ft 500 kts 64°
2026-05-05 02:48 43.92780 -34.04140 33420 ft 498 kts 64°
2026-05-05 02:49 43.95346 -33.95218 33435 ft 497 kts 64°
2026-05-05 02:49 43.97900 -33.86304 33425 ft 497 kts 64°
2026-05-05 02:50 44.00448 -33.77382 33426 ft 496 kts 64°
2026-05-05 02:50 44.02554 -33.69979 33425 ft 496 kts 64°
2026-05-05 02:51 44.05082 -33.61067 33439 ft 495 kts 64°
2026-05-05 02:51 44.07602 -33.52151 33429 ft 495 kts 64°
2026-05-05 02:52 44.10115 -33.43227 33426 ft 495 kts 64°
2026-05-05 02:52 44.12622 -33.34293 33432 ft 495 kts 65°
2026-05-05 02:53 44.15101 -33.25423 33445 ft 495 kts 64°
2026-05-05 02:53 44.17589 -33.16490 33436 ft 494 kts 64°
2026-05-05 02:54 44.20068 -33.07560 33437 ft 494 kts 64°
2026-05-05 02:54 44.22539 -32.98622 33452 ft 493 kts 64°
2026-05-05 02:55 44.24998 -32.89697 33433 ft 493 kts 64°
2026-05-05 02:55 44.27447 -32.80778 33431 ft 492 kts 64°
2026-05-05 02:56 44.29887 -32.71856 33445 ft 492 kts 64°
2026-05-05 02:56 44.32319 -32.62932 33440 ft 492 kts 64°
2026-05-05 02:57 44.34744 -32.54000 33437 ft 492 kts 64°
2026-05-05 02:57 44.37162 -32.45062 33438 ft 492 kts 64°
2026-05-05 02:58 44.39575 -32.36107 33453 ft 492 kts 64°
2026-05-05 02:58 44.41982 -32.27142 33445 ft 493 kts 64°
2026-05-05 02:59 44.44383 -32.18165 33439 ft 492 kts 64°
2026-05-05 02:59 44.46763 -32.09235 33439 ft 492 kts 64°
2026-05-05 03:00 44.49150 -32.00245 33439 ft 492 kts 64°
2026-05-05 03:00 44.51526 -31.91258 33443 ft 492 kts 64°
2026-05-05 03:01 44.53897 -31.82260 33443 ft 492 kts 64°
2026-05-05 03:01 44.56260 -31.73259 33438 ft 492 kts 64°
2026-05-05 03:02 44.58618 -31.64239 33451 ft 492 kts 64°
2026-05-05 03:02 44.60966 -31.55224 33445 ft 492 kts 64°
2026-05-05 03:03 44.63304 -31.46214 33441 ft 491 kts 64°
2026-05-05 03:03 44.65633 -31.37205 33444 ft 490 kts 64°
2026-05-05 03:04 44.67939 -31.28249 33458 ft 490 kts 64°
2026-05-05 03:04 44.70252 -31.19233 33448 ft 490 kts 64°
2026-05-05 03:05 44.72553 -31.10229 33444 ft 489 kts 64°
2026-05-05 03:05 44.74846 -31.01220 33469 ft 489 kts 64°
2026-05-05 03:06 44.77131 -30.92209 33440 ft 488 kts 64°
2026-05-05 03:06 44.79404 -30.83209 33448 ft 487 kts 64°
2026-05-05 03:07 44.81666 -30.74215 33454 ft 487 kts 64°
2026-05-05 03:07 44.83919 -30.65226 33461 ft 487 kts 64°
2026-05-05 03:08 44.86164 -30.56231 33449 ft 486 kts 64°
2026-05-05 03:08 44.88381 -30.47315 33449 ft 484 kts 64°
2026-05-05 03:09 44.90601 -30.38349 33453 ft 484 kts 64°
2026-05-05 03:09 44.92814 -30.29381 33462 ft 483 kts 64°
2026-05-05 03:10 44.95015 -30.20423 33450 ft 483 kts 64°
2026-05-05 03:10 44.97207 -30.11464 33452 ft 482 kts 64°
2026-05-05 03:11 44.99388 -30.02526 33451 ft 481 kts 64°
2026-05-05 03:11 45.01371 -29.93449 33462 ft 484 kts 67°
2026-05-05 03:12 45.03148 -29.84333 33449 ft 484 kts 68°
2026-05-05 03:12 45.04918 -29.75143 33456 ft 484 kts 68°
2026-05-05 03:13 45.06698 -29.65973 33452 ft 483 kts 67°
2026-05-05 03:13 45.08480 -29.56811 33451 ft 482 kts 67°
2026-05-05 03:14 45.10250 -29.47684 33438 ft 480 kts 67°
2026-05-05 03:14 45.12006 -29.38586 33446 ft 478 kts 67°
2026-05-05 03:15 45.13740 -29.29557 33451 ft 478 kts 67°
2026-05-05 03:15 45.15477 -29.20469 33448 ft 478 kts 67°
2026-05-05 03:16 45.17207 -29.11374 33445 ft 477 kts 67°
2026-05-05 03:16 45.18927 -29.02285 33445 ft 478 kts 67°
2026-05-05 03:17 45.20642 -28.93180 33446 ft 478 kts 67°
2026-05-05 03:17 45.22352 -28.84055 33448 ft 478 kts 67°
2026-05-05 03:18 45.24055 -28.74945 33730 ft 484 kts 67°
2026-05-05 03:18 45.24913 -28.70328 34144 ft 482 kts 67°
2026-05-05 03:18 45.25761 -28.65736 34591 ft 480 kts 67°
2026-05-05 03:18 45.26603 -28.61168 34990 ft 478 kts 67°
2026-05-05 03:19 45.28284 -28.52037 35394 ft 480 kts 67°
2026-05-05 03:19 45.29967 -28.42870 35429 ft 478 kts 67°
2026-05-05 03:20 45.31628 -28.33752 35434 ft 475 kts 67°
2026-05-05 03:20 45.33276 -28.24671 35439 ft 474 kts 67°
2026-05-05 03:21 45.34907 -28.15650 35458 ft 474 kts 67°
2026-05-05 03:21 45.36543 -28.06556 35448 ft 475 kts 67°
2026-05-05 03:22 45.38173 -27.97446 35443 ft 476 kts 67°
2026-05-05 03:22 45.39798 -27.88317 35439 ft 476 kts 67°
2026-05-05 03:23 45.41418 -27.79163 35468 ft 477 kts 67°
2026-05-05 03:23 45.43034 -27.69989 35441 ft 478 kts 67°
2026-05-05 03:24 45.44645 -27.60796 35436 ft 478 kts 68°
2026-05-05 03:24 45.46237 -27.51660 35436 ft 478 kts 68°
2026-05-05 03:25 45.47830 -27.42471 35461 ft 477 kts 68°
2026-05-05 03:25 45.49417 -27.33275 35440 ft 478 kts 68°
2026-05-05 03:26 45.50995 -27.24086 35432 ft 477 kts 68°
2026-05-05 03:26 45.52565 -27.14886 35434 ft 477 kts 68°
2026-05-05 03:27 45.54127 -27.05694 35459 ft 477 kts 68°
2026-05-05 03:27 45.55682 -26.96487 35433 ft 477 kts 68°
2026-05-05 03:28 45.57230 -26.87278 35434 ft 477 kts 68°
2026-05-05 03:28 45.58771 -26.78061 35432 ft 477 kts 68°
2026-05-05 03:29 45.60305 -26.68838 35451 ft 478 kts 68°
2026-05-05 03:29 45.61833 -26.59596 35433 ft 478 kts 68°
2026-05-05 03:30 45.63356 -26.50336 35428 ft 479 kts 68°
2026-05-05 03:30 45.64872 -26.41065 35430 ft 479 kts 68°
2026-05-05 03:31 45.66382 -26.31786 35449 ft 479 kts 68°
2026-05-05 03:31 45.67888 -26.22481 35424 ft 481 kts 68°
2026-05-05 03:32 45.69377 -26.13224 35425 ft 481 kts 68°
2026-05-05 03:32 45.70871 -26.03882 35421 ft 482 kts 69°
2026-05-05 03:33 45.72359 -25.94529 35455 ft 482 kts 69°
2026-05-05 03:33 45.73845 -25.85145 35427 ft 484 kts 69°
2026-05-05 03:34 45.75325 -25.75730 35422 ft 485 kts 69°
2026-05-05 03:34 45.76799 -25.66300 35421 ft 486 kts 69°
2026-05-05 03:35 45.78268 -25.56853 35441 ft 486 kts 70°
2026-05-05 03:35 45.79732 -25.47385 35423 ft 487 kts 70°
2026-05-05 03:36 45.81189 -25.37897 35419 ft 487 kts 70°
2026-05-05 03:36 45.82630 -25.28461 35413 ft 488 kts 70°
2026-05-05 03:37 45.84072 -25.18963 35430 ft 488 kts 71°
2026-05-05 03:37 45.85510 -25.09447 35417 ft 488 kts 72°
2026-05-05 03:38 45.86940 -24.99911 35411 ft 489 kts 72°
2026-05-05 03:38 45.88364 -24.90360 35407 ft 490 kts 72°
2026-05-05 03:39 45.89783 -24.80788 35411 ft 490 kts 72°
2026-05-05 03:39 45.91192 -24.71219 35406 ft 490 kts 72°
2026-05-05 03:40 45.92358 -24.63263 35410 ft 490 kts 73°
2026-05-05 03:40 45.93753 -24.53678 35408 ft 490 kts 73°
2026-05-05 03:41 45.95139 -24.44099 35408 ft 489 kts 73°
2026-05-05 03:41 45.96518 -24.34520 35401 ft 490 kts 74°
2026-05-05 03:42 45.97889 -24.24927 35404 ft 490 kts 74°
2026-05-05 03:42 45.99252 -24.15327 35403 ft 490 kts 74°
2026-05-05 03:43 46.00607 -24.05719 35402 ft 490 kts 74°
2026-05-05 03:43 46.01955 -23.96108 35408 ft 490 kts 75°
2026-05-05 03:44 46.03296 -23.86479 35400 ft 491 kts 75°
2026-05-05 03:44 46.04628 -23.76852 35396 ft 490 kts 75°
2026-05-05 03:45 46.05952 -23.67220 35399 ft 490 kts 75°
2026-05-05 03:45 46.07258 -23.57660 35402 ft 490 kts 76°
2026-05-05 03:46 46.08564 -23.48028 35391 ft 489 kts 76°
2026-05-05 03:46 46.09861 -23.38407 35392 ft 488 kts 76°
2026-05-05 03:47 46.11147 -23.28797 35390 ft 488 kts 76°
2026-05-05 03:47 46.12424 -23.19192 35398 ft 487 kts 76°
2026-05-05 03:48 46.13692 -23.09591 35387 ft 487 kts 76°
2026-05-05 03:48 46.14949 -23.00007 35388 ft 486 kts 76°
2026-05-05 03:49 46.16192 -22.90472 35390 ft 486 kts 76°
2026-05-05 03:49 46.17431 -22.80889 35393 ft 486 kts 76°
2026-05-05 03:50 46.18662 -22.71311 35381 ft 485 kts 77°
2026-05-05 03:50 46.19884 -22.61734 35382 ft 485 kts 77°
2026-05-05 03:51 46.21097 -22.52163 35382 ft 485 kts 77°
2026-05-05 03:51 46.22301 -22.42590 35392 ft 484 kts 77°
2026-05-05 03:52 46.23498 -22.33009 35381 ft 484 kts 77°
2026-05-05 03:52 46.24687 -22.23426 35377 ft 484 kts 77°
2026-05-05 03:53 46.25859 -22.13903 35377 ft 484 kts 77°
2026-05-05 03:53 46.27030 -22.04325 35383 ft 484 kts 77°
2026-05-05 03:54 46.28193 -21.94744 35375 ft 483 kts 77°
2026-05-05 03:54 46.29347 -21.85170 35374 ft 483 kts 77°
2026-05-05 03:55 46.30490 -21.75608 35371 ft 482 kts 77°
2026-05-05 03:55 46.31624 -21.66055 35386 ft 482 kts 77°
2026-05-05 03:56 46.32752 -21.56486 35374 ft 482 kts 77°
2026-05-05 03:56 46.33871 -21.46918 35369 ft 482 kts 77°
2026-05-05 03:57 46.34974 -21.37422 35368 ft 482 kts 77°
2026-05-05 03:57 46.36075 -21.27858 35384 ft 482 kts 78°
2026-05-05 03:58 46.37171 -21.18275 35371 ft 482 kts 78°
2026-05-05 03:58 46.38259 -21.08686 35359 ft 482 kts 78°
2026-05-05 03:59 46.39339 -20.99092 35360 ft 482 kts 78°
2026-05-05 03:59 46.40410 -20.89503 35355 ft 482 kts 78°
2026-05-05 04:00 46.41472 -20.79915 35363 ft 482 kts 78°
2026-05-05 04:00 46.42527 -20.70320 35359 ft 482 kts 78°
2026-05-05 04:01 46.43574 -20.60716 35358 ft 482 kts 78°
2026-05-05 04:01 46.44614 -20.51098 35370 ft 483 kts 78°
2026-05-05 04:02 46.45646 -20.41484 35358 ft 483 kts 78°
2026-05-05 04:02 46.46662 -20.31931 35356 ft 482 kts 78°
2026-05-05 04:03 46.47676 -20.22324 35360 ft 482 kts 78°
2026-05-05 04:03 46.48682 -20.12711 35342 ft 481 kts 78°
2026-05-05 04:04 46.49681 -20.03104 35344 ft 481 kts 78°
2026-05-05 04:04 46.50731 -19.93536 35345 ft 479 kts 77°
2026-05-05 04:05 46.51908 -19.84020 35344 ft 478 kts 77°
2026-05-05 04:05 46.53088 -19.74523 35344 ft 478 kts 77°
2026-05-05 04:06 46.54241 -19.65028 35353 ft 477 kts 77°
2026-05-05 04:06 46.55374 -19.55529 35340 ft 477 kts 77°
2026-05-05 04:07 46.56496 -19.46031 35342 ft 476 kts 77°
2026-05-05 04:07 46.57608 -19.36557 35336 ft 475 kts 77°
2026-05-05 04:08 46.58704 -19.27146 35347 ft 475 kts 77°
2026-05-05 04:08 46.59801 -19.17669 35334 ft 475 kts 77°
2026-05-05 04:09 46.60890 -19.08188 35328 ft 475 kts 77°
2026-05-05 04:09 46.61969 -18.98714 35328 ft 474 kts 77°
2026-05-05 04:10 46.63042 -18.89231 35333 ft 475 kts 78°
2026-05-05 04:10 46.64109 -18.79724 35327 ft 476 kts 78°
2026-05-05 04:11 46.65163 -18.70257 35322 ft 477 kts 78°
2026-05-05 04:11 46.66219 -18.60700 35319 ft 478 kts 78°
2026-05-05 04:12 46.67267 -18.51132 35330 ft 479 kts 78°
2026-05-05 04:12 46.68311 -18.41532 35318 ft 480 kts 78°
2026-05-05 04:13 46.69348 -18.31911 35318 ft 481 kts 78°
2026-05-05 04:13 46.70378 -18.22282 35311 ft 481 kts 79°
2026-05-05 04:14 46.71401 -18.12638 35321 ft 482 kts 79°
2026-05-05 04:14 46.72416 -18.02985 35307 ft 482 kts 79°
2026-05-05 04:15 46.73424 -17.93326 35299 ft 482 kts 79°
2026-05-05 04:15 46.74423 -17.83665 35302 ft 482 kts 79°
2026-05-05 04:16 46.75407 -17.74066 35306 ft 482 kts 79°
2026-05-05 04:16 46.76390 -17.64403 35287 ft 482 kts 79°
2026-05-05 04:17 46.77364 -17.54737 35287 ft 482 kts 79°
2026-05-05 04:17 46.78330 -17.45065 35288 ft 482 kts 79°
2026-05-05 04:18 46.79289 -17.35389 35283 ft 482 kts 79°
2026-05-05 04:18 46.80238 -17.25718 35285 ft 482 kts 79°
2026-05-05 04:19 46.81180 -17.16038 35278 ft 482 kts 80°
2026-05-05 04:19 46.82113 -17.06357 35279 ft 481 kts 80°
2026-05-05 04:20 46.83038 -16.96677 35281 ft 481 kts 80°
2026-05-05 04:20 46.83954 -16.86996 35273 ft 481 kts 80°
2026-05-05 04:21 46.84863 -16.77304 35274 ft 481 kts 80°
2026-05-05 04:21 46.85764 -16.67612 35273 ft 481 kts 80°
2026-05-05 04:22 46.86656 -16.57919 35272 ft 481 kts 80°
2026-05-05 04:22 46.87534 -16.48291 35278 ft 481 kts 81°
2026-05-05 04:23 46.88409 -16.38599 35268 ft 481 kts 81°
2026-05-05 04:23 46.89274 -16.28916 35265 ft 480 kts 81°
2026-05-05 04:24 46.90130 -16.19247 35258 ft 479 kts 81°
2026-05-05 04:25 46.91400 -16.04735 35251 ft 479 kts 81°
2026-05-05 04:25 46.92234 -15.95075 35250 ft 479 kts 81°
2026-05-05 04:26 46.93060 -15.85421 35252 ft 478 kts 81°
2026-05-05 04:26 46.93877 -15.75759 35250 ft 478 kts 81°
2026-05-05 04:27 46.94681 -15.66164 35256 ft 478 kts 81°
2026-05-05 04:27 46.95482 -15.56505 35239 ft 478 kts 81°
2026-05-05 04:28 46.96274 -15.46854 35237 ft 477 kts 81°
2026-05-05 04:28 46.96926 -15.38830 35236 ft 477 kts 81°
2026-05-05 04:29 46.97701 -15.29195 35251 ft 476 kts 80°
2026-05-05 04:29 46.98592 -15.17993 35231 ft 475 kts 80°
2026-05-05 04:30 46.99227 -15.09941 35228 ft 475 kts 81°
2026-05-05 04:30 47.00024 -15.00346 35226 ft 473 kts 77°
2026-05-05 04:31 47.01595 -14.91107 35247 ft 469 kts 71°
2026-05-05 04:31 47.03389 -14.81902 35225 ft 469 kts 71°
2026-05-05 04:32 47.05159 -14.72696 35216 ft 469 kts 71°
2026-05-05 04:32 47.06898 -14.63472 35217 ft 468 kts 71°
2026-05-05 04:33 47.08618 -14.54248 35210 ft 469 kts 71°
2026-05-05 04:33 47.10329 -14.45016 35212 ft 468 kts 71°
2026-05-05 04:34 47.12032 -14.35789 35205 ft 468 kts 71°
2026-05-05 04:34 47.13726 -14.26565 35204 ft 467 kts 71°
2026-05-05 04:35 47.15411 -14.17351 35203 ft 467 kts 71°
2026-05-05 04:35 47.17087 -14.08137 35208 ft 467 kts 71°
2026-05-05 04:36 47.18753 -13.98928 35196 ft 466 kts 71°
2026-05-05 04:36 47.20397 -13.89800 35194 ft 465 kts 71°
2026-05-05 04:37 47.22041 -13.80621 35188 ft 464 kts 71°
2026-05-05 04:37 47.23677 -13.71446 35203 ft 463 kts 71°
2026-05-05 04:38 47.25302 -13.62280 35193 ft 463 kts 71°
2026-05-05 04:38 47.26918 -13.53121 35186 ft 462 kts 71°
2026-05-05 04:39 47.28526 -13.43963 35182 ft 461 kts 71°
2026-05-05 04:39 47.30125 -13.34806 35200 ft 461 kts 71°
2026-05-05 04:40 47.31717 -13.25646 35174 ft 461 kts 71°
2026-05-05 04:40 47.33298 -13.16497 35180 ft 460 kts 71°
2026-05-05 04:41 47.34859 -13.07415 35166 ft 460 kts 71°
2026-05-05 04:41 47.36424 -12.98265 35163 ft 460 kts 71°
2026-05-05 04:42 47.37981 -12.89117 35156 ft 460 kts 71°
2026-05-05 04:42 47.39530 -12.79967 35169 ft 460 kts 71°
2026-05-05 04:43 47.41072 -12.70809 35169 ft 460 kts 71°
2026-05-05 04:43 47.42608 -12.61635 35165 ft 460 kts 72°
2026-05-05 04:44 47.44138 -12.52448 35166 ft 461 kts 72°
2026-05-05 04:44 47.45663 -12.43246 35162 ft 461 kts 72°
2026-05-05 04:45 47.47170 -12.34095 35152 ft 461 kts 72°
2026-05-05 04:45 47.48681 -12.24876 35150 ft 461 kts 72°
2026-05-05 04:46 47.50182 -12.15663 35175 ft 461 kts 72°
2026-05-05 04:46 47.51675 -12.06453 35144 ft 460 kts 72°
2026-05-05 04:47 47.53157 -11.97258 35137 ft 459 kts 72°
2026-05-05 04:47 47.54627 -11.88085 35137 ft 457 kts 72°
2026-05-05 04:48 47.56088 -11.78926 35140 ft 457 kts 72°
2026-05-05 04:48 47.57538 -11.69774 35143 ft 456 kts 72°
2026-05-05 04:49 47.58978 -11.60642 35130 ft 454 kts 72°
2026-05-05 04:49 47.60406 -11.51532 35132 ft 453 kts 72°
2026-05-05 04:50 47.61823 -11.42446 35110 ft 452 kts 72°
2026-05-05 04:50 47.63231 -11.33364 35126 ft 452 kts 72°
2026-05-05 04:51 47.64630 -11.24289 35114 ft 451 kts 72°
2026-05-05 04:51 47.66018 -11.15234 35113 ft 450 kts 72°
2026-05-05 04:52 47.67387 -11.06254 35114 ft 449 kts 72°
2026-05-05 04:52 47.68758 -10.97210 35129 ft 449 kts 72°
2026-05-05 04:53 47.70125 -10.88149 35105 ft 450 kts 72°
2026-05-05 04:53 47.71486 -10.79059 35097 ft 451 kts 72°
2026-05-05 04:54 47.72844 -10.69943 35098 ft 451 kts 72°
2026-05-05 04:54 47.74193 -10.60836 35093 ft 451 kts 72°
2026-05-05 04:55 47.75535 -10.51724 35097 ft 452 kts 73°
2026-05-05 04:55 47.76873 -10.42581 35089 ft 453 kts 73°
2026-05-05 04:56 47.78197 -10.33479 35088 ft 454 kts 73°
2026-05-05 04:56 47.79524 -10.24300 35081 ft 454 kts 73°
2026-05-05 04:57 47.80846 -10.15106 35098 ft 455 kts 74°
2026-05-05 04:57 47.82164 -10.05885 35080 ft 456 kts 75°
2026-05-05 04:58 47.83477 -9.96634 35072 ft 457 kts 75°
2026-05-05 04:58 47.84786 -9.87357 35071 ft 458 kts 75°
2026-05-05 04:59 47.86087 -9.78082 35060 ft 458 kts 75°
2026-05-05 04:59 47.87383 -9.68785 35068 ft 459 kts 75°
2026-05-05 05:00 47.88673 -9.59473 35063 ft 459 kts 75°
2026-05-05 05:00 47.89956 -9.50144 35058 ft 459 kts 76°
2026-05-05 05:01 47.91232 -9.40815 35055 ft 460 kts 76°
2026-05-05 05:01 47.92502 -9.31468 35083 ft 462 kts 76°
2026-05-05 05:01 47.93132 -9.26818 35251 ft 465 kts 76°
2026-05-05 05:02 47.93769 -9.22088 35555 ft 465 kts 76°
2026-05-05 05:02 47.94403 -9.17366 35865 ft 465 kts 76°
2026-05-05 05:02 47.95036 -9.12633 36167 ft 465 kts 76°
2026-05-05 05:02 47.95667 -9.07906 36428 ft 465 kts 77°
2026-05-05 05:03 47.96298 -9.03161 36685 ft 466 kts 77°
2026-05-05 05:03 47.96928 -8.98413 36924 ft 467 kts 77°
2026-05-05 05:03 47.97558 -8.93644 36986 ft 470 kts 77°
2026-05-05 05:04 47.98816 -8.84074 37032 ft 469 kts 77°
2026-05-05 05:04 47.99935 -8.74514 37037 ft 467 kts 82°
2026-05-05 05:05 48.00103 -8.64832 37051 ft 466 kts 88°
2026-05-05 05:05 48.00065 -8.55135 37042 ft 466 kts 88°
2026-05-05 05:06 48.00053 -8.45441 37047 ft 468 kts 88°
2026-05-05 05:06 48.00055 -8.35718 37044 ft 469 kts 88°
2026-05-05 05:07 48.00053 -8.26027 37040 ft 470 kts 88°
2026-05-05 05:07 48.00040 -8.16188 37041 ft 471 kts 88°
2026-05-05 05:08 48.00020 -8.06385 37043 ft 472 kts 88°
2026-05-05 05:08 48.00280 -7.96662 37030 ft 471 kts 80°
2026-05-05 05:09 48.01324 -7.87022 37043 ft 470 kts 79°
2026-05-05 05:09 48.02404 -7.77373 37035 ft 471 kts 79°
2026-05-05 05:10 48.03450 -7.67723 37027 ft 471 kts 79°
2026-05-05 05:10 48.04471 -7.58060 37029 ft 471 kts 79°
2026-05-05 05:11 48.05478 -7.48381 37023 ft 471 kts 80°
2026-05-05 05:11 48.06477 -7.38698 37029 ft 471 kts 80°
2026-05-05 05:12 48.07470 -7.29005 37013 ft 471 kts 80°
2026-05-05 05:12 48.08454 -7.19317 37015 ft 471 kts 80°
2026-05-05 05:13 48.09431 -7.09624 37014 ft 471 kts 80°
2026-05-05 05:13 48.10393 -6.99989 37011 ft 472 kts 80°
2026-05-05 05:14 48.11354 -6.90277 37016 ft 472 kts 80°
2026-05-05 05:14 48.12305 -6.80574 37020 ft 472 kts 81°
2026-05-05 05:15 48.13250 -6.70860 37013 ft 471 kts 81°
2026-05-05 05:15 48.14185 -6.61149 37010 ft 471 kts 81°
2026-05-05 05:16 48.15111 -6.51444 37011 ft 471 kts 81°
2026-05-05 05:16 48.16029 -6.41738 37009 ft 470 kts 81°
2026-05-05 05:17 48.16938 -6.32041 37008 ft 470 kts 81°
2026-05-05 05:17 48.17837 -6.22351 37004 ft 469 kts 81°
2026-05-05 05:18 48.18729 -6.12657 37004 ft 469 kts 81°
2026-05-05 05:18 48.19462 -6.04615 37002 ft 469 kts 81°
2026-05-05 05:19 48.20337 -5.94933 36996 ft 469 kts 82°
2026-05-05 05:19 48.21203 -5.85251 36994 ft 469 kts 82°
2026-05-05 05:20 48.22061 -5.75565 36995 ft 469 kts 82°
2026-05-05 05:20 48.22911 -5.65881 36994 ft 469 kts 82°
2026-05-05 05:21 48.23753 -5.56186 36992 ft 469 kts 82°
2026-05-05 05:21 48.24588 -5.46484 36992 ft 469 kts 82°
2026-05-05 05:22 48.25409 -5.36838 36994 ft 469 kts 83°
2026-05-05 05:22 48.26228 -5.27118 36992 ft 469 kts 83°
2026-05-05 05:23 48.27039 -5.17396 36993 ft 469 kts 83°
2026-05-05 05:23 48.27843 -5.07664 36982 ft 470 kts 83°
2026-05-05 05:24 48.28637 -4.97930 36988 ft 470 kts 83°
2026-05-05 05:24 48.29426 -4.88170 36983 ft 471 kts 83°
2026-05-05 05:25 48.30207 -4.78401 36980 ft 471 kts 83°
2026-05-05 05:25 48.30855 -4.70209 36980 ft 471 kts 83°
2026-05-05 05:26 48.31620 -4.60430 36971 ft 471 kts 83°
2026-05-05 05:26 48.32379 -4.50646 36969 ft 471 kts 83°
2026-05-05 05:27 48.33128 -4.40861 36970 ft 471 kts 83°
2026-05-05 05:27 48.34236 -4.26183 36957 ft 472 kts 84°
2026-05-05 05:28 48.34962 -4.16423 36974 ft 473 kts 84°
2026-05-05 05:28 48.35685 -4.06601 36972 ft 473 kts 84°
2026-05-05 05:29 48.36400 -3.96754 36978 ft 474 kts 84°
2026-05-05 05:29 48.37108 -3.86899 36973 ft 474 kts 84°
2026-05-05 05:30 48.37808 -3.77025 36970 ft 475 kts 84°
2026-05-05 05:30 48.38500 -3.67137 36974 ft 475 kts 84°
2026-05-05 05:31 48.39185 -3.57240 36971 ft 476 kts 84°
2026-05-05 05:31 48.39862 -3.47329 36971 ft 476 kts 85°
2026-05-05 05:32 48.40531 -3.37419 36973 ft 476 kts 85°
2026-05-05 05:32 48.41190 -3.27499 36980 ft 476 kts 85°
2026-05-05 05:33 48.41837 -3.17645 36959 ft 476 kts 85°
2026-05-05 05:33 48.42483 -3.07680 36955 ft 475 kts 85°
2026-05-05 05:34 48.43117 -2.97762 36943 ft 475 kts 86°
2026-05-05 05:34 48.43738 -2.87920 36958 ft 475 kts 86°
2026-05-05 05:35 48.44353 -2.78016 36946 ft 475 kts 86°
2026-05-05 05:35 48.44961 -2.68108 36946 ft 475 kts 86°
2026-05-05 05:36 48.45561 -2.58196 36935 ft 475 kts 86°
2026-05-05 05:36 48.46152 -2.48275 36942 ft 475 kts 86°
2026-05-05 05:37 48.46732 -2.38364 36941 ft 475 kts 86°
2026-05-05 05:37 48.47305 -2.28437 36930 ft 475 kts 87°
2026-05-05 05:38 48.47870 -2.18508 36933 ft 475 kts 87°
2026-05-05 05:38 48.48427 -2.08580 36919 ft 475 kts 87°
2026-05-05 05:39 48.48975 -1.98649 36927 ft 475 kts 87°
2026-05-05 05:39 48.49514 -1.88722 36927 ft 475 kts 87°
2026-05-05 05:40 48.50041 -1.78851 36925 ft 475 kts 88°
2026-05-05 05:40 48.50564 -1.68915 36908 ft 475 kts 88°
2026-05-05 05:41 48.51078 -1.58981 36916 ft 475 kts 88°
2026-05-05 05:41 48.51583 -1.49037 36906 ft 475 kts 88°
2026-05-05 05:42 48.52080 -1.39094 36908 ft 476 kts 88°
2026-05-05 05:42 48.52568 -1.29140 36886 ft 476 kts 88°
2026-05-05 05:43 48.53049 -1.19181 36890 ft 476 kts 88°
2026-05-05 05:43 48.53521 -1.09201 36896 ft 477 kts 88°
2026-05-05 05:44 48.53985 -0.99218 36877 ft 477 kts 89°
2026-05-05 05:44 48.54440 -0.89243 36883 ft 476 kts 89°
2026-05-05 05:45 48.54887 -0.79287 36879 ft 475 kts 89°
2026-05-05 05:45 48.55345 -0.69344 36880 ft 475 kts 88°
2026-05-05 05:46 48.55831 -0.59413 36885 ft 474 kts 88°
2026-05-05 05:46 48.56311 -0.49477 36884 ft 475 kts 89°
2026-05-05 05:47 48.56777 -0.39526 36889 ft 476 kts 89°
2026-05-05 05:47 48.57234 -0.29553 36879 ft 476 kts 89°
2026-05-05 05:48 48.57679 -0.19639 36875 ft 476 kts 89°
2026-05-05 05:48 48.58118 -0.09673 36880 ft 475 kts 89°
2026-05-05 05:49 48.58548 0.00294 36872 ft 476 kts 89°
2026-05-05 05:49 48.58970 0.10278 36875 ft 477 kts 89°
2026-05-05 05:50 48.59384 0.20290 36864 ft 477 kts 89°
2026-05-05 05:50 48.59789 0.30276 36880 ft 476 kts 89°
2026-05-05 05:51 48.60185 0.40257 36875 ft 476 kts 89°
2026-05-05 05:51 48.60573 0.50242 36864 ft 475 kts 90°
2026-05-05 05:52 48.60952 0.60212 36876 ft 474 kts 90°
2026-05-05 05:52 48.61320 0.70157 36876 ft 474 kts 90°
2026-05-05 05:53 48.61679 0.80088 36877 ft 473 kts 90°
2026-05-05 05:53 48.62029 0.89997 36873 ft 472 kts 90°
2026-05-05 05:54 48.62371 0.99911 36876 ft 472 kts 90°
2026-05-05 05:54 48.62704 1.09824 36885 ft 473 kts 90°
2026-05-05 05:55 48.63029 1.19765 36888 ft 474 kts 90°
2026-05-05 05:55 48.63345 1.29655 36875 ft 475 kts 90°
2026-05-05 05:56 48.63654 1.39635 36870 ft 476 kts 91°
2026-05-05 05:56 48.63957 1.49633 36872 ft 477 kts 91°
2026-05-05 05:57 48.64249 1.59659 36882 ft 477 kts 92°
2026-05-05 05:57 48.63838 1.69614 36867 ft 472 kts 104°
2026-05-05 05:58 48.62489 1.79304 36867 ft 471 kts 105°
2026-05-05 05:58 48.61105 1.88996 36875 ft 472 kts 105°
2026-05-05 05:59 48.59756 1.98701 36878 ft 472 kts 105°
2026-05-05 05:59 48.58411 2.08412 36882 ft 472 kts 105°
2026-05-05 06:00 48.57088 2.18129 36860 ft 473 kts 103°
2026-05-05 06:00 48.56556 2.28065 36888 ft 476 kts 95°
2026-05-05 06:01 48.56326 2.38066 36877 ft 477 kts 95°
2026-05-05 06:01 48.56056 2.48006 36861 ft 477 kts 96°
2026-05-05 06:02 48.55747 2.58011 36862 ft 478 kts 96°
2026-05-05 06:02 48.55427 2.68029 36847 ft 478 kts 96°
2026-05-05 06:03 48.55101 2.78104 36850 ft 477 kts 96°
2026-05-05 06:03 48.54791 2.88020 36865 ft 476 kts 96°
2026-05-05 06:04 48.54473 2.97981 36869 ft 475 kts 96°
2026-05-05 06:04 48.54134 3.07941 36860 ft 475 kts 96°
2026-05-05 06:05 48.53784 3.17892 36866 ft 475 kts 96°
2026-05-05 06:05 48.53426 3.27865 36865 ft 476 kts 97°
2026-05-05 06:06 48.53061 3.37857 36868 ft 477 kts 97°
2026-05-05 06:06 48.52750 3.46174 36849 ft 478 kts 97°
2026-05-05 06:07 48.52368 3.56193 36862 ft 478 kts 97°
2026-05-05 06:07 48.51976 3.66213 36866 ft 478 kts 97°
2026-05-05 06:08 48.51577 3.76231 36873 ft 479 kts 97°
2026-05-05 06:08 48.51169 3.86249 36877 ft 479 kts 97°
2026-05-05 06:09 48.50710 3.96259 36877 ft 477 kts 101°
2026-05-05 06:09 48.49109 4.05853 36883 ft 469 kts 114°
2026-05-05 06:10 48.46311 4.14641 36886 ft 464 kts 121°
2026-05-05 06:10 48.43269 4.23229 36880 ft 465 kts 122°
2026-05-05 06:11 48.40243 4.31833 36858 ft 465 kts 121°
2026-05-05 06:11 48.37239 4.40442 36869 ft 465 kts 121°
2026-05-05 06:12 48.34236 4.49045 36870 ft 465 kts 121°
2026-05-05 06:12 48.31225 4.57642 36870 ft 465 kts 121°
2026-05-05 06:13 48.28225 4.66179 36888 ft 466 kts 121°
2026-05-05 06:13 48.25190 4.74780 36855 ft 467 kts 121°
2026-05-05 06:14 48.22149 4.83374 36869 ft 466 kts 122°
2026-05-05 06:14 48.19102 4.91957 36875 ft 466 kts 122°
2026-05-05 06:15 48.16051 5.00525 36876 ft 466 kts 122°
2026-05-05 06:15 48.12998 5.09074 36880 ft 466 kts 122°
2026-05-05 06:16 48.10137 5.17781 36866 ft 469 kts 115°
2026-05-05 06:16 48.08201 5.27151 36889 ft 473 kts 109°
2026-05-05 06:17 48.06438 5.36659 36893 ft 475 kts 109°
2026-05-05 06:17 48.04645 5.46154 36862 ft 469 kts 109°
2026-05-05 06:18 48.03762 5.50774 36478 ft 466 kts 110°
2026-05-05 06:18 48.02872 5.55400 36032 ft 461 kts 110°
2026-05-05 06:18 48.01988 5.59972 35618 ft 455 kts 111°
2026-05-05 06:18 48.01110 5.64495 35172 ft 451 kts 111°
2026-05-05 06:19 48.00240 5.68967 34725 ft 447 kts 112°
2026-05-05 06:19 47.99373 5.73408 34284 ft 444 kts 112°
2026-05-05 06:19 47.98511 5.77814 33823 ft 440 kts 112°
2026-05-05 06:19 47.97655 5.82184 33308 ft 437 kts 112°
2026-05-05 06:20 47.96804 5.86517 32831 ft 432 kts 112°
2026-05-05 06:20 47.95961 5.90797 32389 ft 427 kts 112°
2026-05-05 06:20 47.95126 5.95032 31933 ft 423 kts 112°
2026-05-05 06:20 47.94296 5.99226 31513 ft 419 kts 112°
2026-05-05 06:21 47.93472 6.03385 31081 ft 416 kts 112°
2026-05-05 06:21 47.92651 6.07514 30634 ft 413 kts 112°
2026-05-05 06:21 47.91837 6.11607 30217 ft 410 kts 111°
2026-05-05 06:21 47.91026 6.15673 29762 ft 407 kts 111°
2026-05-05 06:22 47.90220 6.19711 29287 ft 404 kts 111°
2026-05-05 06:22 47.89420 6.23710 28848 ft 400 kts 111°
2026-05-05 06:22 47.88637 6.27610 28429 ft 397 kts 111°
2026-05-05 06:22 47.87849 6.31533 27989 ft 393 kts 111°
2026-05-05 06:23 47.87067 6.35419 27567 ft 390 kts 111°
2026-05-05 06:23 47.86288 6.39276 27152 ft 387 kts 111°
2026-05-05 06:23 47.85512 6.43114 26743 ft 385 kts 111°
2026-05-05 06:23 47.84740 6.46923 26328 ft 383 kts 111°
2026-05-05 06:24 47.83971 6.50710 25915 ft 381 kts 111°
2026-05-05 06:24 47.83206 6.54473 25501 ft 380 kts 111°
2026-05-05 06:24 47.82441 6.58227 25111 ft 378 kts 111°
2026-05-05 06:24 47.81676 6.61974 24710 ft 378 kts 110°
2026-05-05 06:25 47.80913 6.65703 24307 ft 376 kts 110°
2026-05-05 06:25 47.80151 6.69423 23913 ft 375 kts 110°
2026-05-05 06:25 47.79391 6.73127 23514 ft 374 kts 110°
2026-05-05 06:25 47.78631 6.76823 23039 ft 373 kts 109°
2026-05-05 06:26 47.77873 6.80499 22619 ft 371 kts 109°
2026-05-05 06:26 47.77119 6.84159 22215 ft 369 kts 109°
2026-05-05 06:26 47.76366 6.87804 21812 ft 368 kts 109°
2026-05-05 06:26 47.75615 6.91430 21415 ft 366 kts 109°
2026-05-05 06:27 47.74868 6.95028 21038 ft 364 kts 110°
2026-05-05 06:27 47.73380 7.02184 20251 ft 361 kts 110°
2026-05-05 06:27 47.72639 7.05740 19845 ft 360 kts 110°
2026-05-05 06:28 47.71909 7.09237 19467 ft 358 kts 110°
2026-05-05 06:28 47.71171 7.12765 19080 ft 357 kts 110°
2026-05-05 06:28 47.70435 7.16277 18692 ft 356 kts 110°
2026-05-05 06:28 47.69690 7.19824 18296 ft 355 kts 110°
2026-05-05 06:29 47.68963 7.23274 17876 ft 354 kts 111°
2026-05-05 06:29 47.68220 7.26798 17430 ft 353 kts 111°
2026-05-05 06:29 47.67488 7.30263 17016 ft 351 kts 111°
2026-05-05 06:29 47.66760 7.33705 16618 ft 349 kts 111°
2026-05-05 06:30 47.66045 7.37081 16229 ft 347 kts 111°
2026-05-05 06:30 47.65323 7.40491 15845 ft 346 kts 111°
2026-05-05 06:30 47.64603 7.43884 15452 ft 344 kts 111°
2026-05-05 06:30 47.63883 7.47263 15070 ft 343 kts 111°
2026-05-05 06:31 47.63163 7.50623 14699 ft 341 kts 112°
2026-05-05 06:31 47.62401 7.53944 14307 ft 340 kts 113°
2026-05-05 06:31 47.61616 7.57249 13902 ft 339 kts 112°
2026-05-05 06:31 47.60832 7.60540 13490 ft 338 kts 112°
2026-05-05 06:32 47.60052 7.63829 13076 ft 338 kts 112°
2026-05-05 06:32 47.59279 7.67104 12663 ft 336 kts 112°
2026-05-05 06:32 47.58506 7.70375 12273 ft 335 kts 112°
2026-05-05 06:32 47.57737 7.73621 11870 ft 334 kts 111°
2026-05-05 06:33 47.56973 7.76864 11455 ft 333 kts 111°
2026-05-05 06:33 47.56209 7.80102 11030 ft 333 kts 111°
2026-05-05 06:33 47.55446 7.83334 10660 ft 331 kts 111°
2026-05-05 06:33 47.54689 7.86541 10288 ft 330 kts 110°
2026-05-05 06:34 47.53933 7.89736 9927 ft 328 kts 110°
2026-05-05 06:34 47.53187 7.92890 9778 ft 318 kts 110°
2026-05-05 06:34 47.52471 7.95914 9692 ft 306 kts 110°
2026-05-05 06:34 47.51779 7.98831 9608 ft 295 kts 110°
2026-05-05 06:35 47.51119 8.01604 9523 ft 284 kts 110°
2026-05-05 06:35 47.50475 8.04305 9324 ft 271 kts 110°
2026-05-05 06:35 47.49859 8.06894 8698 ft 265 kts 110°
2026-05-05 06:35 47.49250 8.09457 7963 ft 263 kts 110°
2026-05-05 06:36 47.48723 8.12016 7331 ft 257 kts 96°
2026-05-05 06:36 47.49070 8.14521 7073 ft 254 kts 59°
2026-05-05 06:36 47.50263 8.16492 6741 ft 261 kts 43°
2026-05-05 06:36 47.51619 8.18322 6340 ft 266 kts 44°
2026-05-05 06:37 47.52991 8.20188 5941 ft 269 kts 43°
2026-05-05 06:37 47.54377 8.22064 5548 ft 271 kts 43°
2026-05-05 06:37 47.55760 8.23935 5305 ft 267 kts 43°
2026-05-05 06:37 47.57089 8.25732 5191 ft 258 kts 43°
2026-05-05 06:38 47.58402 8.27507 4979 ft 252 kts 43°
2026-05-05 06:38 47.59674 8.29247 4762 ft 244 kts 47°
2026-05-05 06:38 47.60517 8.31353 4502 ft 236 kts 76°
2026-05-05 06:38 47.60760 8.33721 4396 ft 231 kts 85°
2026-05-05 06:39 47.60546 8.36082 4197 ft 235 kts 114°
2026-05-05 06:39 47.59593 8.37973 4068 ft 223 kts 133°
2026-05-05 06:39 47.58522 8.39536 3995 ft 208 kts 136°
2026-05-05 06:39 47.57509 8.40929 3917 ft 193 kts 136°
2026-05-05 06:40 47.56536 8.42252 3646 ft 186 kts 136°
2026-05-05 06:40 47.55599 8.43529 3410 ft 179 kts 136°
2026-05-05 06:40 47.54714 8.44738 3180 ft 167 kts 136°
2026-05-05 06:40 47.53867 8.45898 2985 ft 164 kts 136°
2026-05-05 06:41 47.53052 8.47008 2778 ft 155 kts 136°
2026-05-05 06:41 47.52271 8.48075 2547 ft 151 kts 137°
2026-05-05 06:41 47.51497 8.49132 2361 ft 153 kts 137°
2026-05-05 06:41 47.50713 8.50201 2134 ft 153 kts 137°
2026-05-05 06:42 47.49932 8.51266 1900 ft 152 kts 137°
2026-05-05 06:42 47.49157 8.52323 1700 ft 151 kts 137°
2026-05-05 06:42 47.48383 8.53373 1497 ft 151 kts 137°
2026-05-05 06:42 47.47625 8.54406 1410 ft 141 kts 137°
2026-05-05 06:43 47.47012 8.55242 1402 ft 98 kts 137°
2026-05-05 06:43 47.46672 8.55707 1404 ft 33 kts 137°
2026-05-05 06:43 47.46514 8.55885 1409 ft 27 kts 152°
2026-05-05 06:43 47.46373 8.55957 1409 ft 19 kts 168°
2026-05-05 06:44 47.46287 8.55982 1412 ft 9 kts 175°
2026-05-05 06:44 47.46232 8.55947 1416 ft 9 kts 240°
2026-05-05 06:44 47.46231 8.55847 1410 ft 11 kts 275°
2026-05-05 06:44 47.46239 8.55731 1408 ft 12 kts 276°
2026-05-05 06:45 47.46247 8.55613 1407 ft 10 kts 276°
2026-05-05 06:45 47.46255 8.55500 1409 ft 12 kts 276°
2026-05-05 06:45 47.46263 8.55390 1403 ft 10 kts 276°
2026-05-05 06:45 47.46270 8.55284 1403 ft 7 kts 276°
2026-05-05 06:46 47.46264 8.55211 1409 ft 7 kts 228°
2026-05-05 06:46 47.46230 8.55196 1408 ft 5 kts 189°
2026-05-05 06:46 47.46213 8.55193 1408 ft 2 kts 188°
2026-05-05 06:46 47.46205 8.55191 1406 ft 1 kts 187°
2026-05-05 06:47 47.46203 8.55191 1406 ft 0 kts 187°